Regional Weather Roundup
Issued by NWS Charleston, WV

Home | Current Version | Previous Version | Text Only | Print | Product List | Glossary Off
Versions: 1 2 3 4 5 6 7 8 9 10 11 12 13 14 15 16 17 18 19 20 21 22 23 24 25 26 27 28 29 30 31 32 33 34 35 36 37 38 39 40 41 42 43 44 45 46 47 48 49 50

450
ASUS41 KRLX 231410
RWRRLX
West Virginia Regional Weather Roundup
National Weather Service Charleston WV
900 AM EST FRI FEB 23 2018

Note: "fair" indicates few or no clouds below 12,000 feet with no
significant weather and/or obstructions to visibility.

WVZ003-231500-
Northern Panhandle of West Virginia

CITY           SKY/WX    TMP DP  RH WIND       PRES   REMARKS
WHEELING       CLOUDY    50  48  93 SE7       30.25F FOG
$$

WVZ009-231500-
Northwest West Virginia

CITY           SKY/WX    TMP DP  RH WIND       PRES   REMARKS
PARKERSBURG    PTSUNNY   49  47  93 SE3       30.28F FOG
$$

WVZ006-231500-
Western West Virginia

CITY           SKY/WX    TMP DP  RH WIND       PRES   REMARKS
HUNTINGTON     FAIR      53  50  89 SW7       30.28S
$$

WVZ015-231500-
West Central West Virginia

CITY           SKY/WX    TMP DP  RH WIND       PRES   REMARKS
CHARLESTON     PTSUNNY   54  52  93 CALM      30.29F
$$

WVZ022-031-231500-
North Central West Virginia

CITY           SKY/WX    TMP DP  RH WIND       PRES   REMARKS
CLARKSBURG     FAIR      53  50  89 CALM      30.30F
MORGANTOWN     PTSUNNY   52  47  83 SE6       30.30F
$$

WVZ025-035-042-045-231500-
Southern West Virginia

CITY           SKY/WX    TMP DP  RH WIND       PRES   REMARKS
BECKLEY        FAIR      58  56  93 SE15      30.39F
LOGAN          FAIR      64  57  77 S5        30.34S
BLUEFIELD      PTSUNNY   58  55  90 S16G22    30.43S
LEWISBURG      CLOUDY    54  52  93 CALM      30.43F
$$

WVZ047-231500-
Northern Mountains of West Virginia

CITY           SKY/WX    TMP DP  RH WIND       PRES   REMARKS
ELKINS         FOG       51  50  96 CALM      30.36F VSB 1
$$

WVZ052-231500-
Eastern Panhandle of West Virginia

CITY           SKY/WX    TMP DP  RH WIND       PRES   REMARKS
MARTINSBURG    CLOUDY    40  38  93 SE7       30.53S
PETERSBURG     CLOUDY    42  40  94 CALM      30.46F
$$




USA.gov is the U.S. government's official web portal to all federal, state and local government web resources and services.